KE8ZZR Weather Reports


Display with metric or nautical units.
time (UTC)temp
F
wind
direction
speed
MPH
gust
MPH
rain 1hr
in
rain 24hr
in
rain mn
in
humidity
%
barometer
mb
20260510093058 45 0 0.0 0.0 0.00 0.32 0.00 93 1011.7
20260510091558 45 0 0.0 0.0 0.00 0.32 0.00 93 1011.4
20260510090056 46 0 0.0 0.0 0.00 0.32 0.00 93 1011.2
20260510084556 46 0 0.0 4.0 0.00 0.33 0.00 93 1010.9
20260510083100 47 100 0.0 2.0 0.00 0.33 0.00 92 1010.7
20260510081556 49 13 1.0 4.0 0.00 0.33 0.00 92 1010.7
20260510080100 50 310 0.0 4.0 0.00 0.33 0.00 93 1010.6
20260510074605 51 0 0.0 4.0 0.00 0.42 0.00 94 1010.1
20260510073055 50 294 0.0 1.0 0.00 0.42 0.00 94 1010.0
20260510071557 50 0 0.0 0.0 0.00 0.42 0.00 94 1009.9
20260510070109 50 0 0.0 1.0 0.00 0.42 0.00 93 1009.4
20260510064602 50 0 0.0 3.0 0.00 0.52 0.00 93 1009.1
20260510063100 50 0 0.0 0.0 0.00 0.52 0.00 93 1009.0
20260510061556 51 0 0.0 0.0 0.00 0.52 0.00 93 1008.7
20260510060104 51 0 0.0 6.0 0.00 0.52 0.00 94 1008.6
20260510054601 51 321 1.0 3.0 0.00 0.56 0.00 93 1008.7
20260510053055 51 1 1.0 2.0 0.00 0.56 0.00 94 1008.5
20260510051557 50 0 0.0 2.0 0.00 0.56 0.00 93 1008.6
20260510050100 50 0 0.0 0.0 0.00 0.56 0.00 92 1008.5
20260510044611 51 0 0.0 1.0 0.00 0.62 0.00 92 1008.1
20260510043110 52 0 0.0 0.0 0.00 0.62 0.00 92 1008.1
20260510041609 53 0 0.0 0.0 0.01 0.62 0.00 92 1008.3
20260510040059 53 18 0.0 3.0 0.01 0.62 0.00 92 1008.3
20260510034600 54 311 3.0 6.0 0.02 0.63 0.62 92 1008.6
20260510033129 54 0 0.0 2.0 0.02 0.63 0.62 92 1008.0
20260510031619 54 0 0.0 1.0 0.01 0.62 0.61 92 1008.1
20260510030111 54 32 2.0 4.0 0.01 0.62 0.61 92 1007.8
20260510024600 53 0 0.0 1.0 0.00 0.63 0.60 92 1008.4
20260510023055 53 0 0.0 2.0 0.00 0.63 0.60 92 1008.0
20260510021556 53 0 0.0 0.0 0.00 0.63 0.60 92 1007.6
20260510020054 53 0 0.0 1.0 0.00 0.63 0.60 91 1007.6
20260510014606 53 0 0.0 0.0 0.00 0.65 0.60 91 1007.4
20260510013057 53 0 0.0 0.0 0.00 0.65 0.60 90 1007.2
20260510011559 54 0 0.0 0.0 0.01 0.65 0.60 90 1006.9
20260510004558 54 279 2.0 5.0 0.12 0.68 0.60 90 1007.2
20260510003101 54 0 0.0 5.0 0.28 0.68 0.60 89 1007.0
20260510001557 55 252 3.0 13.0 0.27 0.67 0.58 88 1007.4
20260510000057 55 278 5.0 12.0 0.22 0.62 0.54 87 1007.2
20260509234606 57 296 6.0 24.0 0.16 0.63 0.48 82 1007.0
20260509233053 66 293 5.0 15.0 0.00 0.47 0.32 61 1005.7
20260509231556 66 269 2.0 10.0 0.00 0.47 0.32 63 1004.7
20260509230057 67 283 1.0 7.0 0.00 0.47 0.32 62 1004.6
20260509224557 68 212 1.0 10.0 0.00 0.47 0.32 61 1004.5
20260509223059 69 271 2.0 10.0 0.00 0.47 0.32 57 1004.4
20260509221557 70 275 3.0 13.0 0.00 0.47 0.32 56 1004.4
20260509214555 71 259 3.0 10.0 0.00 0.47 0.32 54 1004.5
20260509213058 70 89 3.0 11.0 0.00 0.47 0.32 57 1004.5
20260509211555 71 261 3.0 14.0 0.00 0.47 0.32 55 1004.6
20260509210100 70 136 4.0 12.0 0.00 0.47 0.32 55 1005.1
20260509204604 71 233 3.0 8.0 0.00 0.49 0.32 55 1005.2
20260509203055 71 243 2.0 7.0 0.00 0.49 0.32 56 1005.4
20260509201600 70 55 3.0 7.0 0.00 0.49 0.32 59 1005.6
20260509200057 69 219 3.0 8.0 0.00 0.49 0.32 61 1005.9
20260509194558 69 12 3.0 10.0 0.00 0.52 0.32 60 1006.1
20260509193058 69 166 2.0 11.0 0.00 0.52 0.32 62 1006.3
20260509191601 69 302 1.0 12.0 0.00 0.52 0.32 63 1006.5
20260509184558 68 313 4.0 12.0 0.00 0.54 0.32 63 1006.6
20260509183059 67 221 2.0 17.0 0.00 0.54 0.32 63 1006.6
20260509181604 68 258 2.0 9.0 0.00 0.54 0.32 66 1006.8
20260509180059 67 278 4.0 10.0 0.00 0.54 0.32 64 1006.7
20260509174605 66 303 1.0 10.0 0.00 0.55 0.32 69 1006.9
20260509173112 65 245 3.0 13.0 0.00 0.55 0.32 68 1006.9
20260509171603 66 96 1.0 8.0 0.00 0.55 0.32 70 1006.8
20260509170059 65 268 2.0 12.0 0.00 0.55 0.32 69 1006.8
20260509164555 65 105 1.0 5.0 0.00 0.55 0.32 71 1007.0
20260509163103 63 184 3.0 9.0 0.00 0.55 0.32 72 1007.1
20260509161603 62 214 1.0 7.0 0.00 0.55 0.32 80 1007.2
20260509160059 61 224 1.0 7.0 0.00 0.55 0.32 82 1007.2
20260509154607 59 212 3.0 12.0 0.00 0.55 0.32 82 1007.2
20260509153058 59 250 3.0 8.0 0.00 0.55 0.32 85 1007.2
20260509151555 58 337 3.0 9.0 0.00 0.55 0.32 85 1007.2
20260509150055 58 288 1.0 10.0 0.00 0.55 0.32 88 1007.1
20260509144610 56 212 5.0 12.0 0.00 0.55 0.32 89 1007.0
20260509143056 56 279 2.0 10.0 0.00 0.55 0.32 93 1007.1
20260509141557 55 233 2.0 8.0 0.00 0.55 0.32 92 1007.2
20260509140110 54 161 1.0 5.0 0.00 0.55 0.32 93 1007.0
20260509134556 54 265 1.0 3.0 0.00 0.55 0.32 93 1007.1
20260509133103 54 0 0.0 3.0 0.00 0.55 0.32 93 1007.0
20260509131602 53 0 0.0 3.0 0.00 0.55 0.32 93 1007.2
20260509130106 53 0 0.0 1.0 0.00 0.55 0.32 93 1007.4
20260509124606 52 262 0.0 2.0 0.00 0.55 0.32 93 1007.5
20260509123057 52 0 0.0 2.0 0.00 0.55 0.32 93 1007.5
20260509121604 52 271 0.0 3.0 0.00 0.55 0.32 93 1007.4
20260509120057 52 0 0.0 3.0 0.00 0.55 0.32 93 1007.6
20260509114557 51 276 0.0 2.0 0.00 0.55 0.32 93 1007.5
20260509113058 51 0 0.0 1.0 0.00 0.55 0.32 93 1007.4
20260509111603 51 0 0.0 1.0 0.00 0.55 0.32 93 1007.3
20260509110056 51 0 0.0 1.0 0.00 0.55 0.32 93 1007.3
20260509104557 51 0 1.0 2.0 0.01 0.55 0.32 93 1007.1
20260509103103 51 0 0.0 3.0 0.01 0.55 0.32 93 1007.0
20260509101558 51 0 0.0 0.0 0.02 0.55 0.32 93 1007.0
20260509100055 51 268 0.0 1.0 0.02 0.55 0.32 93 1007.2
20260509094557 50 0 0.0 1.0 0.01 0.54 0.31 93 1007.4